Hourly Data Report for October 12, 2014

All times are specified in Local Standard Time (LST). Add 1 hour to adjust for Daylight Saving Time where and when it is observed.

RANKIN INLET A
NUNAVUT

62°48'38.000" N
92°06'53.000" W
32.30 m
2303405
71083
YRT

Download Data

Hourly Data (October 2014)
Hourly Data Report for October 12, 2014
Temp Definition
°C
Dew Point Temp Definition
°C
Rel Hum Definition
%
Wind Dir Definition
10's deg

Wind Spd Definition
km/h
Visibility Definition
km
Stn Press Definition
kPa
Hmdx Definition


Wind Chill Definition


Weather Definition


TIME
00:00 Legend Double Dagger -7.3 -9.3 86 34 10 24.1 99.53   -12 Clear
01:00 Legend Double Dagger -7.0 -9.0 86 34 12 24.1 99.56   -12 LegendNANA
02:00 Legend Double Dagger -5.9 -7.9 86 1 14 24.1 99.57   -11 LegendNANA
03:00 Legend Double Dagger -3.8 -5.5 88 5 15 24.1 99.58   -9 Mostly Cloudy
04:00 Legend Double Dagger -3.6 -5.9 84 8 12 24.1 99.58   -8 LegendNANA
05:00 Legend Double Dagger -3.8 -5.5 88 6 15 24.1 99.60   -9 LegendNANA
06:00 Legend Double Dagger -2.9 -4.9 86 5 15 24.1 99.58   -8 Snow
07:00 Legend Double Dagger -2.2 -4.5 84 7 12 24.1 99.60   -6 Snow
08:00 Legend Double Dagger -1.4 -4.6 79 8 12 24.1 99.64   -5 LegendNANA
09:00 Legend Double Dagger -0.9 -4.4 77 9 14 24.1 99.68   -5 Snow
10:00 Legend Double Dagger -0.7 -3.6 81 9 12 12.9 99.71   -5 Snow
11:00 Legend Double Dagger -0.3 -4.8 72 7 12 19.3 99.73   -4 Snow
12:00 Legend Double Dagger -0.3 -4.6 73 8 16 24.1 99.78   -5 Snow
13:00 Legend Double Dagger -0.5 -4.9 72 6 17 24.1 99.81   -5 Snow
14:00 Legend Double Dagger -0.6 -5.0 72 6 14 24.1 99.83   -5 Snow
15:00 Legend Double Dagger -0.8 -5.2 72 8 13 24.1 99.84   -5 Snow
16:00 Legend Double Dagger -1.1 -5.3 73 4 16 19.3 99.89   -6 Snow
17:00 Legend Double Dagger -1.6 -4.9 78 5 16 24.1 99.94   -7 Snow
18:00 Legend Double Dagger -2.2 -5.5 78 5 15 24.1 100.01   -7 Snow
19:00 Legend Double Dagger -2.8 -5.8 80 2 11 24.1 100.05   -7 Snow
20:00 Legend Double Dagger -3.3 -5.9 82 36 13 24.1 100.08   -8 Snow
21:00 Legend Double Dagger -3.3 -5.6 84 4 9 24.1 100.08   -7 Snow
22:00 Legend Double Dagger -3.1 -5.6 83 33 4 24.1 100.09   -5 Snow
23:00 Legend Double Dagger -2.9 -5.4 83 32 7 24.1 100.11   -6 Snow

Notes on Data Quality.

Legend

  • E = Estimated
  • M = Missing
  • NA = Not Available
  • ‡ = Partner data that is not subject to review by the National Climate Archives
Date modified: